Miscellaneous Local Product
Issued by NWS Hastings, NE

Home | Current Version | Previous Version | Text Only | Print | Product List | Glossary On
Versions: 1 2 3 4 5 6 7 8 9 10 11 12 13 14 15 16 17 18 19 20 21 22 23 24 25 26 27 28 29 30 31 32 33 34 35 36 37 38 39 40 41 42 43 44 45 46 47 48 49 50
000
AXUS43 KGID 200702
MISGRI

GID CWA HOURLY WEATHER ROUNDUP
NATIONAL WEATHER SERVICE HASTINGS NE
100 AM CST TUE FEB 20 2018

NOTE: "FAIR" INDICATES FEW OR NO CLOUDS BELOW 12,000 FEET WITH NO
SIGNIFICANT WEATHER AND/OR OBSTRUCTIONS TO VISIBILITY.

...SOUTH CENTRAL NEBRASKA...

CITY           SKY/WX    TMP DP  RH WIND       PRES   REMARKS
GRAND ISLAND   LGT SNOW  14  10  84 NW17      29.90R FOG     WCI  -3
KEARNEY        FLURRIES  11   7  84 N17       29.90R WCI  -6
HASTINGS       LGT SNOW  13  10  88 NW17      29.88R FOG     WCI  -4
ORD            LGT SNOW  11   6  81 N15       29.91R WCI  -5
YORK           LGT SNOW  18  18 100 NW15      29.88R WCI   3
AURORA         LGT SNOW  15  12  88 N16       29.89R WCI  -1
LEXINGTON      FLURRIES  12   7  79 N12       29.90S WCI  -2
HOLDREGE       CLOUDY    12   8  86 N14G21    29.88S WCI  -4
HEBRON         LGT SNOW  20  19  93 N12       29.90R WCI   8

...NEBRASKA PANHANDLE...

CITY           SKY/WX    TMP DP  RH WIND       PRES   REMARKS
CHADRON        CLOUDY     0  -6  76 N8        29.95F WCI -14
ALLIANCE       LGT SNOW  -3  -7  82 N15       29.83F FOG     WCI -23
SCOTTSBLUFF    CLOUDY     0  -7  72 NW10      29.91R HAZE    WCI -16
SIDNEY         LGT SNOW  -1  -6  79 N13       29.85R WCI -19

...WESTERN AND NORTH CENTRAL NEBRASKA...

CITY           SKY/WX    TMP DP  RH WIND       PRES   REMARKS
VALENTINE      HVY SNOW   4  -1  80 NW17G23   29.98R VSB 1/4 WCI -16
AINSWORTH      LGT SNOW   5   2  86 NW13      29.94R WCI -12
ONEILL         LGT SNOW   8   5  88 N16       29.90R WCI  -9
BROKEN BOW     LGT SNOW   9   5  84 N12       29.90R VSB 3/4 WCI  -6
IMPERIAL       CLOUDY     6   2  83 N18       29.85F WCI -13
NORTH PLATTE   CLOUDY     7   0  73 NW13      29.91F WCI  -9
MCCOOK         LGT SNOW  10   6  84 N16       29.90R FOG     WCI  -7

...EASTERN NEBRASKA...

CITY           SKY/WX    TMP DP  RH WIND       PRES   REMARKS
NORFOLK        LGT SNOW  14  11  87 NW12G17   29.89R FOG     WCI   0
SO SIOUX CITY  MIX PCPN  18  15  88 NW10      29.89R FOG     WCI   6
TEKAMAH        CLOUDY    20  17  88 N12       29.88R WCI   8
COLUMBUS       FLURRIES  17  14  88 NW14      29.91R WCI   3
ALBION         LGT SNOW  14  10  84 NW14      29.89R WCI  -1
OMAHA EPPLEY   LGT SNOW  23  21  92 NW10      29.85F FOG     WCI  12
OFFUTT AFB     LGTSLEET  23  21  93 NW6       29.85R WCI  16
MILLARD        CLOUDY    24  21  88 NW7       29.85F WCI  16
LINCOLN        FLURRIES  21  19  92 N12       29.87S WCI   9
NEBRASKA CITY  CLOUDY    24  24 100 NW3       29.84F
BEATRICE       CLOUDY    23  20  89 NW9       29.86R WCI  13
FALLS CITY     LGT SNOW  26  24  92 NW8       29.87R FOG     WCI  18

...NORTHERN KANSAS...

CITY           SKY/WX    TMP DP  RH WIND       PRES   REMARKS
GOODLAND       CLOUDY     9   5  84 N15G25    29.80R WCI  -8
HILL CITY      LGT SNOW  15  12  88 N18       29.88S FOG     WCI  -2
NORTON         FLURRIES  12   7  79 N15       29.86F WCI  -4
PHILLIPSBURG   LGT SNOW  16  12  86 NW14      29.91R WCI   1
SMITH CENTER   LGT SNOW  16  12  86 N14       29.91R WCI   1
BELOIT         CLOUDY    18  16  93 NW10      29.90R FOG     WCI   6
HAYS           LGT SNOW  18  16  92 MISG      29.86R FOG
RUSSELL        CLOUDY    20  18  92 N17       29.85R FOG     WCI   5
CONCORDIA      CLOUDY    19  18  95 NW12      29.87R FOG     WCI   7
SALINA         CLOUDY    24  22  91 N14       29.86R WCI  12
TOPEKA         FRZ RAIN  29  28  96 NW7       29.85R WCI  22



USA.gov is the U.S. government's official web portal to all federal, state and local government web resources and services.